Current weather by "City, St" or "zip code"  
 
Advertise Here

Current Conditions: Davis-Monthan Air Force Base, AZ

Fair


104.0 F

Last Updated on Aug 4 2020, 2:58 pm MST
Humidity: 13%
Wind Speed: W 10.4 mph
Barometer 29.97 in
Dewpoint: 43.2 F
Visibility: 10.00 mi
Precip: --
Heat Index: 100 F
Wind Chill: NA
Current conditions at:

Davis-Monthan Air Force Base, AZ (KDMA)

Lat: 32.16667 Lon: 110.88333

Local Radar Image active severe weather and emergency alerts image image weather storm and storm spotter reports image weather observation monitoring service image
Local
Radar
Active
Alerts
Storm Reports Obs
Monitoring

Sign-up For Email & Text Message Weather Alert Notification Services


Advertise Here

Observation History for Davis-Monthan Air Force Base, AZ


Time Wind
(mph)
Vis
(mi)
Weather Precip (in) Temperature (F) Relative
Humidity
Wind
Chill
(F)
Heat
Index
(F)
Pressure
Air Dwpt altimeter
(in)
sea level
(mb)
Rmks
2:58 pm MST W 10.4 10.00 Fair -- 104.0 43.2 13% NA 100 29.97 1009.7
1:58 pm MST SW 4.6 G 19.6 10.00 Fair -- 102.0 43.9 14% NA 98 30.00 1010.8
12:58 pm MST W 5.8 10.00 Fair -- 100.0 48.4 18% NA 97 30.02 1011.4
11:58 am MST NW 6.9 10.00 Partly Cloudy -- 97.0 50.5 21% NA 94 30.05 1012.6
10:58 am MST W 4.6 10.00 Fair -- 95.0 51.4 23% NA 92 30.06 1012.9
9:56 am MST W 5.8 10.00 Fair -- 93.0 52.2 25% NA 90 30.07 1013.3
8:58 am MST SE 5.8 10.00 Fair -- 90.0 54.5 30% NA 88 30.07 1013.4
7:58 am MST SE 5.8 10.00 Fair -- 85.0 54.9 36% NA 84 30.06 1013.0
6:58 am MST SE 8.1 10.00 Fair -- 79.0 56.5 46% NA NA 30.06 1013.2
5:58 am MST S 9.2 10.00 Fair -- 77.0 57.6 51% NA NA 30.05 1012.8
4:58 am MST SE 8.1 10.00 Fair -- 78.0 56.5 47% NA NA 30.03 1012.0
3:58 am MST SE 10.4 10.00 Fair -- 80.0 56.7 45% NA 80 30.02 1011.7
2:58 am MST SE 9.2 10.00 Fair -- 80.0 56.1 44% NA 80 30.02 1011.6
1:58 am MST S 8.1 10.00 Fair -- 81.0 57.2 45% NA 81 30.02 1011.4
12:58 am MST SE 10.4 10.00 Fair -- 82.0 57.4 43% NA 82 30.03 1011.8
11:58 pm MST S 9.2 10.00 Fair -- 83.0 55.9 39% NA 82 30.03 1011.7
10:58 pm MST SE 8.1 10.00 Fair -- 84.0 55.8 38% NA 83 30.02 1011.4
8:58 pm MST S 17.3 10.00 A Few Clouds -- 87.0 57.9 37% NA 86 30.03 1011.8
7:58 pm MST SW 12.7 G 18.4 10.00 Fair -- 90.0 58.1 34% NA 89 30.01 1011.2
6:58 pm MST S 8.1 10.00 Fair -- 92.0 56.5 30% NA 90 29.98 1010.2
5:58 pm MST S 11.5 10.00 Fair -- 94.0 56.8 29% NA 93 29.96 1009.6
4:58 pm MST SW 4.6 10.00 Fair -- 98.0 50.2 20% NA 95 29.94 1008.8
3:58 pm MST W 13.8 10.00 A Few Clouds -- 95.0 54.0 25% NA 93 29.97 1009.9

Regional Weather Observation


Tucson, Tucson International Airport, AZ (KTUS)

Fair
103.0 F

Davis-Monthan Air Force Base, AZ (KDMA)

Fair
104.0 F

Casa Grande, Casa Grande Municipal Airport, AZ (KCGZ)

Fair
108.0 F

Pioneer Airfield, AZ (KALK)

Fair
93.0 F

Nogales, Nogales International Airport, AZ (KOLS)

Fair
95.0 F

Fort Huachuca, Libby AAF Ft Huachuca, AZ (KFHU)

Mostly Cloudy
94.0 F